CZ-6A DEB, 55235

Orbit data source: Space-Track

CZ-6A DEB, 55235 is space debris in SSO originally from a launch on Fri, 11 Nov 2022 UTC launched from the Taiyaun Space Center, China (TSC). Debris objects in space refer to the collection of defunct objects orbiting the Earth. Examples of debris include non-operational satellites, rocket bodies, and fragments generated from explosions, collisions, or faulty payload assembly.

Loading next visibility...
Identifier
55235, 2022-151XC
Orbit
SSO
Country
Flag of CNCN / PRC
Related business
Manufacturer
SAST
Mission
Spacecraft
Bus & Motor
Unknown
Mass
Unknown
Launch date (UTC)
2022-11-11 (4 years ago)
Launch vehicle
Unknown
Launch site
Taiyaun Space Center, China (TSC)
Object type
Payload
Rocket body
Debris
Shape & HBR
Unknown shape, 0.1 m
Radar Cross Section
Medium (>0.1 m² and <1 m²)

Expand to show TLE details & history
Last TLE update: 2 days ago

TLE from 2 days ago
0 CZ-6A DEB
1 55235U 22151XC  26171.17576925  .00006795  00000-0  11071-2 0  9999
2 55235  98.6346 237.7965 0072240 272.3419  86.9515 14.69611658189201
Epoch: 2026-06-20T04:13Z
TLE epoch observation values (Epoch: 2026-06-20T04:13:06.463Z)
Latitude
-0.00003°
Longitude
-93.87458°
Altitude
662.954 km
Speed
7.527 km/s
True Right ascension
15h 51m 11s
True Declination
0° 00' 00"
Sunlit
Object was in full shadow at epoch
Visualization orbit readout
Latitude
Unknown
Longitude
Unknown
Altitude
Unknown
Speed
Unknown
Apparent Right ascension
Unknown
Apparent Declination
Unknown
Sunlit
N/A
Visualization observer readout
Local Sidereal Time
21:30:23
Azimuth
Unknown
Elevation
Unknown
Doppler factor
Unknown
Orbital elements
Apogee altitude
710.236 km
Perigee altitude
608.558 km
Semi-major axis
7,037.534 km
Eccentricity
0.00722
Inclination
98.6346°
RAAN
237.7965°
Arg. of periapsis
272.3419°
True anomaly
87.77851°
Mean anomaly
86.9515°
Eccentric anomaly
87.36497°
Mean motion
3.67631 °/min
Orbital period
97.92 mins
BSTAR
0.0011071
Loading maneuver chart data...
Computing Atmospheric mass density...
Loading historical data...
Loading historical data...
Loading historical data...
Loading historical data...
Loading historical data...
Loading historical data...
Loading historical data...

Documentation

Showing up to 5 results
|